Weather Service Report


434 
ASUS41 KCTP 051410
RWRCTP

REGIONAL WEATHER ROUNDUP
NATIONAL WEATHER SERVICE STATE COLLEGE PA
1000 AM EDT SAT SEP 05 2015

Note: "fair" indicates few or no clouds below 12,000 feet with no 
significant weather and/or obstructions to visibility.

* = STATION THAT DOES NOT REPORT PRECIPITATION /E.G. RAIN...SNOW...ETC/
    THUNDER OR FOG.

PAZ002>004-007>009-013>016-020>023-029>032-051500-
WESTERN PENNSYLVANIA
  
CITY           SKY/WX    TMP DP  RH WIND       PRES   REMARKS
ERIE           CLOUDY    77  66  68 S13       30.18S                  
MEADVILLE      SUNNY     74  66  76 MISG      30.23S                  
FRANKLIN*      SUNNY     73  66  78 S12       30.25S                  
NEW CASTLE     FAIR      76  71  84 CALM      30.23R                  
BEAVER COUNTY  SUNNY     75  66  73 SE8       30.22R                  
BUTLER*        SUNNY     73  66  78 S5        30.24S                  
PITTSBURGH INT MOSUNNY   77  66  68 S10       30.21S                  
PITTSBURGH     SUNNY     77  63  61 S10       30.22R                  
INDIANA*       MOSUNNY   75  68  78 SE8G16    30.27R                  
LATROBE        SUNNY     77  68  73 S8        30.23R                  
WASHINGTON CO* SUNNY     75  66  73 S9        30.23S                  
$$

PAZ004>006-010>012-017>019-024>028-033>037-041-042-045-046-049>053-051500-
CENTRAL PENNSYLVANIA
  
CITY           SKY/WX    TMP DP  RH WIND       PRES   REMARKS
BRADFORD       MOSUNNY   71  65  81 S8        30.28R HAZE             
DUBOIS         MOSUNNY   74  66  76 SE10      30.26R HAZE             
CLEARFIELD     CLOUDY    72  65  78 VRB6      30.28R                  
JOHNSTOWN      CLOUDY    71  64  78 SE12      30.29R                  
ALTOONA        PTSUNNY   71  65  81 SE8       30.28S                  
STATE COLLEGE  CLOUDY    70  64  83 SE5       30.28R                  
WILLIAMSPORT   CLOUDY    71  63  75 E9        30.26S                  
SELINSGROVE    CLOUDY    72  63  73 CALM      30.28R                  
FT INDIANTOWN  PTSUNNY   72  63  73 NE6       30.28R                  
CAPITAL CITY   CLOUDY    73  63  70 E8        30.27R                  
HARRISBURG     PTSUNNY   74  63  68 S3        30.26S                  
YORK           CLOUDY    72  64  76 E6        30.27S                  
$$

PAZ038>040-043-044-047-048-054-055-060>062-067>071-051500-
EASTERN PENNSYLVANIA
  
CITY           SKY/WX    TMP DP  RH WIND       PRES   REMARKS
SCRANTON       MOSUNNY   72  61  68 CALM      30.30R                  
MOUNT POCONO   SUNNY     68  58  70 E5        30.33R                  
ALLENTOWN      MOSUNNY   74  61  63 E8        30.28S                  
QUAKERTOWN*    SUNNY     73  61  64 NE8       30.29R                  
READING        SUNNY     73  60  63 CALM      30.26S                  
LANCASTER      CLOUDY    71  63  75 E5        30.28R                  
COATESVILLE    CLOUDY    70  64  83 NE3       30.28S                  
POTTSTOWN      MOSUNNY   72  63  73 NE6       30.28S                  
BLUE BELL      MOSUNNY   73  63  68 NE6       30.26S                  
DOYLESTOWN     SUNNY     72  59  63 NE7       30.27R                  
WILLOW GROVE   NOT AVBL                                               
NORTH PHILA    SUNNY     77  59  53 E12       30.28R                  
PHILADELPHIA   PTSUNNY   77  61  57 E9        30.25S                  
$$

Return to Home page


Western Regional Climate Center, wrcc@dri.edu